[TLELIST] Archives

 

Current TLEs

May 30th 2007 PDT

HST 1 20580U 90037B 07148.84891501 +.00000528 +00000-0 +28213-4 0 08949 2 20580 028.4678 316.2355 0003834 251.0981 108.9192 15.00244383737053 ISS (ZARYA) 1 25544U 98067A 07150.46867409 .00012681 00000-0 76376-4 0 3004 2 25544 051.6338 195.4641 0007682 253.2743 249.5397 15.78113675487975 CXO 1 25867U 99040B 07149.12500000 .00000425 00000-0 00000+0 0 732 2 25867 061.7694 089.7207 6200411 284.3770 355.3545 00.37804734 2188 ____________________________________________________________________ These 2-Line ...Continue Reading

Current TLEs

May 29th 2007 PDT

HST 1 20580U 90037B 07147.91756493 +.00000532 +00000-0 +28502-4 0 08986 2 20580 028.4677 322.3077 0003855 241.5574 118.4628 15.00243718736911 ISS (ZARYA) 1 25544U 98067A 07149.12999271 .00017267 00000-0 10260-3 0 2955 2 25544 051.6336 202.3796 0007902 250.6486 201.8108 15.78095383487765 CXO 1 25867U 99040B 07149.12500000 .00000425 00000-0 00000+0 0 732 2 25867 061.7694 089.7207 6200411 284.3770 355.3545 00.37804734 2188 ____________________________________________________________________ These 2-Line ...Continue Reading

Current TLEs

May 28th 2007 PDT

HST 1 20580U 90037B 07147.91756493 .00000532 00000-0 28502-4 0 8841 2 20580 028.4677 322.3077 0003855 241.5574 118.4628 15.00243718736911 ISS (ZARYA) 1 25544U 98067A 07148.50547605 .00015911 00000-0 94973-4 0 2910 2 25544 051.6339 205.6097 0007836 249.1660 252.9466 15.78069729487669 CXO 1 25867U 99040B 07149.12500000 .00000425 00000-0 00000+0 0 732 2 25867 061.7694 089.7207 6200411 284.3770 355.3545 00.37804734 2188 ____________________________________________________________________ These 2-Line ...Continue Reading

Current TLEs

May 27th 2007 PDT

HST 1 20580U 90037B 07146.85316448 .00000505 00000-0 26379-4 0 8834 2 20580 028.4678 329.2478 0003957 230.9275 129.0963 15.00242785736751 ISS (ZARYA) 1 25544U 98067A 07147.48981565 .00017145 00000-0 10216-3 0 2854 2 25544 051.6332 210.8567 0007859 245.2500 243.0026 15.78039141487508 CXO 1 25867U 99040B 07146.50000000 .00000398 00000-0 00000+0 0 724 2 25867 061.7551 089.7587 6196821 284.4425 357.9294 00.37805361 2173 ____________________________________________________________________ These 2-Line ...Continue Reading

Current TLEs

May 26th 2007 PDT

HST 1 20580U 90037B 07144.92393848 +.00000449 +00000-0 +22015-4 0 08873 2 20580 028.4679 341.8253 0003975 211.3870 148.6493 15.00241143736467 ISS (ZARYA) 1 25544U 98067A 07146.48826389 .00020658 00000-0 12240-3 0 2789 2 25544 051.6329 216.0320 0008068 240.2690 314.4431 15.78007740487342 CXO 1 25867U 99040B 07146.50000000 .00000398 00000-0 00000+0 0 724 2 25867 061.7551 089.7587 6196821 284.4425 357.9294 00.37805361 2173 ____________________________________________________________________ These 2-Line ...Continue Reading

Current TLEs

May 25th 2007 PDT

HST 1 20580U 90037B 07143.92606183 +.00000415 +00000-0 +19401-4 0 08970 2 20580 028.4679 348.3305 0004022 201.4140 158.6280 15.00240380736312 ISS (ZARYA) 1 25544U 98067A 07145.46024817 .00017927 00000-0 10699-3 0 2716 2 25544 051.6336 221.3453 0008184 233.8451 237.0123 15.77960894487185 CXO 1 25867U 99040B 07141.25000000 .00000308 00000-0 00000+0 0 711 2 25867 061.7397 089.8715 6188912 284.5657 003.0878 00.37800097 2151 ____________________________________________________________________ These 2-Line ...Continue Reading

Current TLEs

May 24th 2007 PDT

HST 1 20580U 90037B 07143.92606183 .00000415 00000-0 19401-4 0 8813 2 20580 028.4679 348.3305 0004022 201.4140 158.6280 15.00240380736312 ISS (ZARYA) 1 25544U 98067A 07144.42746917 .00017552 00000-0 10116-3 0 2643 2 25544 051.6330 226.6832 0008169 229.1587 130.9231 15.77903661487022 CXO 1 25867U 99040B 07141.25000000 .00000308 00000-0 00000+0 0 711 2 25867 061.7397 089.8715 6188912 284.5657 003.0878 00.37800097 2151 ____________________________________________________________________ These 2-Line ...Continue Reading

Current TLEs

May 23rd 2007 PDT

HST 1 20580U 90037B 07142.86165984 .00000411 00000-0 19094-4 0 8807 2 20580 028.4679 355.2697 0004038 190.8822 169.1684 15.00239822736154 ISS (ZARYA) 1 25544U 98067A 07143.49314381 .00016759 00000-0 99274-4 0 2567 2 25544 051.6327 231.5029 0008839 217.1059 231.4755 15.78182375486878 CXO 1 25867U 99040B 07141.25000000 .00000308 00000-0 00000+0 0 711 2 25867 061.7397 089.8715 6188912 284.5657 003.0878 00.37800097 2151 ____________________________________________________________________ These 2-Line ...Continue Reading

Current TLEs

May 22nd 2007 PDT

HST 1 20580U 90037B 07140.93243069 +.00000382 +00000-0 +16832-4 0 08954 2 20580 028.4678 007.8469 0004012 170.9308 189.1358 15.00238683735861 ISS (ZARYA) 1 25544U 98067A 07142.48392573 .00015402 00000-0 91716-4 0 2505 2 25544 051.6328 236.7217 0008939 214.1188 256.8126 15.78144959486718 CXO 1 25867U 99040B 07141.25000000 .00000308 00000-0 00000+0 0 711 2 25867 061.7397 089.8715 6188912 284.5657 003.0878 00.37800097 2151 ____________________________________________________________________ These 2-Line ...Continue Reading

Current TLEs

May 21st 2007 PDT

HST 1 20580U 90037B 07141.06548096 .00000386 00000-0 17085-4 0 8794 2 20580 028.4678 006.9795 0004020 172.2608 187.8045 15.00238770735887 ISS (ZARYA) 1 25544U 98067A 07141.46823442 .00019119 00000-0 11299-3 0 2445 2 25544 051.6341 241.9687 0008984 209.3925 247.2265 15.78118058486558 CXO 1 25867U 99040B 07141.25000000 .00000308 00000-0 00000+0 0 711 2 25867 061.7397 089.8715 6188912 284.5657 003.0878 00.37800097 2151 ____________________________________________________________________ These 2-Line ...Continue Reading
  • This mailing list is a public mailing list - anyone may join or leave, at any time.
  • This mailing list is announce-only.

International Space Station (ISS) / Hubble Space Telescope (HST) / Chandra X-Ray Observatory Orbital Data via EMAIL

Privacy Policy:

Private list